When you browse on this site, cookies collect data to enhance your experience and personalize the content and advertising you see.
Visit our Privacy Policy to learn more. By continuing to use the site, you agree to this use of cookies and data.
  • In Latvia
  • List of Countries
  • For 7 days
  • Water Temperature
  • Weather Map
  • Weather Widgets
  • user-avatar
    Login

    Hourly Weather Innsbruck

    Today, 23 October, Wednesday

    Time Temperature Precipitation Wind Pressure Humidity
    00:00 +4°C° 0 mm 3 mps 600 mmHg 81%
    01:00 +4°C° 0 mm 3 mps 600 mmHg 81%
    02:00 +4°C° 0 mm 3 mps 599 mmHg 80%
    03:00 +4°C° 0 mm 3 mps 599 mmHg 79%
    04:00 +3°C° 0 mm 3 mps 598 mmHg 78%
    05:00 +3°C° 0 mm 3 mps 598 mmHg 76%
    06:00 +3°C° 0 mm 3 mps 598 mmHg 75%
    07:00 +3°C° 0 mm 4 mps 598 mmHg 72%
    08:00 +7°C° 0 mm 3 mps 599 mmHg 67%
    09:00 +9°C° 0 mm 3 mps 600 mmHg 61%
    10:00 +11°C° 0 mm 3 mps 600 mmHg 56%
    11:00 +12°C° 0 mm 3 mps 601 mmHg 52%
    12:00 +13°C° 0 mm 3 mps 601 mmHg 47%
    13:00 +13°C° 0 mm 4 mps 601 mmHg 42%
    14:00 +12°C° 0 mm 3 mps 600 mmHg 47%
    15:00 +12°C° 0 mm 3 mps 599 mmHg 52%
    16:00 +11°C° 0 mm 3 mps 599 mmHg 57%
    17:00 +9°C° 0 mm 3 mps 598 mmHg 62%
    18:00 +7°C° 0 mm 3 mps 597 mmHg 67%
    19:00 +5°C° 0 mm 3 mps 597 mmHg 72%
    20:00 +5°C° 0 mm 4 mps 596 mmHg 73%
    21:00 +4°C° 0 mm 4 mps 596 mmHg 74%
    22:00 +4°C° 0 mm 4 mps 596 mmHg 75%
    23:00 +4°C° 0 mm 4 mps 596 mmHg 76%

    Tomorrow, 24 October, Thursday

    Time Temperature Precipitation Wind Pressure Humidity
    00:00 +4°C° 0 mm 4 mps 595 mmHg 77%
    01:00 +4°C° 0 mm 4 mps 595 mmHg 77%
    02:00 +4°C° 0 mm 4 mps 595 mmHg 76%
    03:00 +4°C° 0 mm 4 mps 595 mmHg 74%
    04:00 +4°C° 0 mm 4 mps 595 mmHg 73%
    05:00 +4°C° 0 mm 4 mps 595 mmHg 71%
    06:00 +4°C° 0 mm 4 mps 595 mmHg 68%
    07:00 +4°C° 0 mm 4 mps 595 mmHg 66%
    08:00 +5°C° 0 mm 3 mps 595 mmHg 62%
    09:00 +8°C° 0 mm 3 mps 596 mmHg 57%
    10:00 +9°C° 0 mm 3 mps 597 mmHg 53%
    11:00 +10°C° 0 mm 3 mps 597 mmHg 52%
    12:00 +11°C° 0 mm 3 mps 597 mmHg 51%
    13:00 +12°C° 0 mm 3 mps 597 mmHg 49%
    14:00 +11°C° 0 mm 3 mps 597 mmHg 56%
    15:00 +9°C° 0 mm 2 mps 597 mmHg 63%
    16:00 +8°C° 0 mm 2 mps 596 mmHg 70%
    17:00 +7°C° 0.1 mm 2 mps 596 mmHg 75%
    18:00 +6°C° 0.1 mm 2 mps 596 mmHg 80%
    19:00 +5°C° 0.1 mm 2 mps 596 mmHg 85%
    20:00 +5°C° 0 mm 2 mps 596 mmHg 87%
    21:00 +5°C° 0 mm 1 mps 596 mmHg 89%
    22:00 +5°C° 0 mm 1 mps 596 mmHg 90%
    23:00 +5°C° 0 mm 1 mps 596 mmHg 91%

    Day after tomorrow, 25 October, Friday

    Time Temperature Precipitation Wind Pressure Humidity
    00:00 +3°C° 0 mm 0 mps 596 mmHg 91%
    01:00 +3°C° 0 mm 0 mps 596 mmHg 91%
    02:00 +3°C° 0 mm 0 mps 596 mmHg 92%
    03:00 +3°C° 0 mm 0 mps 596 mmHg 93%
    04:00 +2°C° 0 mm 0 mps 596 mmHg 94%
    05:00 +4°C° 0 mm 1 mps 597 mmHg 94%
    06:00 +4°C° 0 mm 1 mps 597 mmHg 94%
    07:00 +4°C° 0 mm 1 mps 598 mmHg 94%
    08:00 +5°C° 0 mm 1 mps 598 mmHg 92%
    09:00 +6°C° 0 mm 1 mps 599 mmHg 90%
    10:00 +7°C° 0 mm 1 mps 600 mmHg 88%
    11:00 +8°C° 0 mm 1 mps 600 mmHg 82%
    12:00 +9°C° 0 mm 1 mps 601 mmHg 77%
    13:00 +10°C° 0 mm 1 mps 601 mmHg 72%
    14:00 +10°C° 0 mm 1 mps 601 mmHg 73%
    15:00 +10°C° 0 mm 1 mps 601 mmHg 75%
    16:00 +9°C° 0 mm 1 mps 600 mmHg 77%
    17:00 +8°C° 0 mm 1 mps 600 mmHg 82%
    18:00 +6°C° 0 mm 1 mps 599 mmHg 86%
    19:00 +5°C° 0 mm 1 mps 599 mmHg 91%
    20:00 +5°C° 0 mm 1 mps 599 mmHg 89%
    21:00 +5°C° 0 mm 1 mps 599 mmHg 87%
    22:00 +5°C° 0 mm 1 mps 599 mmHg 85%
    23:00 +4°C° 0 mm 2 mps 599 mmHg 84%

    26 October, Saturday

    Time Temperature Precipitation Wind Pressure Humidity
    00:00 +4°C° 0 mm 2 mps 599 mmHg 83%
    01:00 +4°C° 0 mm 2 mps 599 mmHg 83%
    02:00 +3°C° 0 mm 2 mps 599 mmHg 82%
    03:00 +3°C° 0 mm 2 mps 599 mmHg 81%
    04:00 +3°C° 0 mm 2 mps 599 mmHg 80%
    05:00 +3°C° 0 mm 2 mps 599 mmHg 79%
    06:00 +3°C° 0 mm 2 mps 599 mmHg 78%
    07:00 +3°C° 0 mm 2 mps 598 mmHg 77%
    08:00 +6°C° 0 mm 2 mps 600 mmHg 69%
    09:00 +8°C° 0 mm 2 mps 601 mmHg 61%
    10:00 +12°C° 0 mm 2 mps 602 mmHg 54%
    11:00 +13°C° 0 mm 2 mps 603 mmHg 51%
    12:00 +14°C° 0 mm 2 mps 603 mmHg 47%
    13:00 +15°C° 0 mm 2 mps 603 mmHg 44%
    14:00 +14°C° 0 mm 1 mps 603 mmHg 50%
    15:00 +13°C° 0 mm 1 mps 602 mmHg 56%
    16:00 +12°C° 0 mm 1 mps 601 mmHg 62%
    17:00 +10°C° 0 mm 1 mps 600 mmHg 64%
    18:00 +8°C° 0 mm 1 mps 600 mmHg 67%
    19:00 +5°C° 0 mm 2 mps 599 mmHg 69%
    20:00 +5°C° 0 mm 2 mps 599 mmHg 68%
    21:00 +5°C° 0 mm 2 mps 599 mmHg 68%
    22:00 +5°C° 0 mm 1 mps 599 mmHg 67%
    23:00 +5°C° 0 mm 1 mps 599 mmHg 67%

    27 October, Sunday

    Time Temperature Precipitation Wind Pressure Humidity
    00:00 +5°C° 0 mm 1 mps 599 mmHg 67%
    01:00 +4°C° 0 mm 1 mps 598 mmHg 68%
    02:00 +4°C° 0 mm 1 mps 598 mmHg 68%
    03:00 +4°C° 0 mm 1 mps 598 mmHg 68%
    04:00 +4°C° 0 mm 1 mps 598 mmHg 68%
    05:00 +4°C° 0 mm 1 mps 598 mmHg 68%
    06:00 +4°C° 0 mm 1 mps 598 mmHg 68%
    07:00 +3°C° 0 mm 1 mps 598 mmHg 68%
    08:00 +5°C° 0 mm 0 mps 599 mmHg 60%
    09:00 +8°C° 0 mm 0 mps 601 mmHg 52%
    10:00 +11°C° 0 mm 0 mps 602 mmHg 44%
    11:00 +13°C° 0 mm 1 mps 602 mmHg 42%
    12:00 +14°C° 0 mm 1 mps 602 mmHg 41%
    13:00 +14°C° 0 mm 1 mps 602 mmHg 40%
    14:00 +13°C° 0 mm 1 mps 601 mmHg 47%
    15:00 +12°C° 0 mm 1 mps 601 mmHg 53%
    16:00 +11°C° 0 mm 1 mps 600 mmHg 60%
    17:00 +9°C° 0 mm 1 mps 599 mmHg 65%
    18:00 +7°C° 0 mm 1 mps 598 mmHg 70%
    19:00 +5°C° 0 mm 1 mps 597 mmHg 75%
    20:00 +5°C° 0 mm 1 mps 597 mmHg 76%
    21:00 +4°C° 0 mm 1 mps 597 mmHg 77%
    22:00 +4°C° 0 mm 1 mps 597 mmHg 77%
    23:00 +4°C° 0 mm 1 mps 596 mmHg 77%

    28 October, Monday

    Time Temperature Precipitation Wind Pressure Humidity
    00:00 +4°C° 0 mm 1 mps 596 mmHg 77%
    01:00 +3°C° 0 mm 1 mps 596 mmHg 77%
    02:00 +3°C° 0 mm 1 mps 596 mmHg 77%
    03:00 +3°C° 0 mm 1 mps 595 mmHg 77%
    04:00 +3°C° 0 mm 1 mps 595 mmHg 77%
    05:00 +3°C° 0 mm 1 mps 595 mmHg 77%
    06:00 +3°C° 0 mm 1 mps 595 mmHg 77%
    07:00 +2°C° 0 mm 1 mps 595 mmHg 77%
    08:00 +4°C° 0 mm 0 mps 596 mmHg 70%
    09:00 +6°C° 0 mm 0 mps 597 mmHg 63%
    10:00 +9°C° 0 mm 0 mps 598 mmHg 56%
    11:00 +9°C° 0 mm 0 mps 598 mmHg 54%
    12:00 +11°C° 0 mm 1 mps 598 mmHg 53%
    13:00 +12°C° 0 mm 1 mps 598 mmHg 52%
    14:00 +11°C° 0 mm 1 mps 597 mmHg 59%
    15:00 +10°C° 0 mm 1 mps 596 mmHg 66%
    16:00 +9°C° 0 mm 1 mps 596 mmHg 73%
    17:00 +6°C° 0 mm 0 mps 595 mmHg 80%
    18:00 +4°C° 0 mm 0 mps 594 mmHg 86%
    19:00 +2°C° 0 mm 0 mps 593 mmHg 92%
    20:00 +2°C° 0 mm 0 mps 593 mmHg 92%
    21:00 +2°C° 0 mm 0 mps 593 mmHg 92%
    22:00 +2°C° 0 mm 0 mps 593 mmHg 92%
    23:00 +3°C° 0 mm 1 mps 593 mmHg 92%

    29 October, Tuesday

    Time Temperature Precipitation Wind Pressure Humidity
    00:00 +3°C° 0 mm 1 mps 593 mmHg 91%
    01:00 +3°C° 0 mm 1 mps 593 mmHg 91%
    02:00 +3°C° 0 mm 1 mps 593 mmHg 91%
    03:00 +2°C° 0 mm 0 mps 593 mmHg 91%
    04:00 +2°C° 0 mm 0 mps 593 mmHg 91%
    05:00 +2°C° 0 mm 0 mps 593 mmHg 91%
    06:00 +2°C° 0 mm 0 mps 593 mmHg 90%
    07:00 +2°C° 0 mm 0 mps 593 mmHg 90%
    08:00 +3°C° 0 mm 0 mps 594 mmHg 87%
    09:00 +4°C° 0 mm 0 mps 594 mmHg 83%
    10:00 +5°C° 0 mm 0 mps 595 mmHg 80%
    11:00 +7°C° 0.1 mm 1 mps 595 mmHg 79%
    12:00 +7°C° 0.1 mm 1 mps 595 mmHg 78%
    13:00 +8°C° 0.1 mm 1 mps 595 mmHg 77%
    14:00 +7°C° 0.2 mm 1 mps 595 mmHg 81%
    15:00 +6°C° 0.2 mm 1 mps 594 mmHg 86%
    16:00 +6°C° 0.2 mm 1 mps 594 mmHg 90%
    17:00 +5°C° 0.4 mm 1 mps 594 mmHg 92%
    18:00 +5°C° 0.4 mm 1 mps 594 mmHg 95%
    19:00 +3°C° 0.4 mm 0 mps 594 mmHg 98%
    20:00 +3°C° 0.2 mm 0 mps 594 mmHg 97%
    21:00 +3°C° 0.2 mm 0 mps 594 mmHg 97%
    22:00 +3°C° 0.2 mm 0 mps 594 mmHg 96%
    23:00 +3°C° 0.3 mm 0 mps 594 mmHg 96%
    Show more